Weather in Sikovitsy

Russia / Pskov Oblast     58°25′32″N   28°41′47″E
temp.,
°C
wind,
m/s
gust,
m/s
humid.,
%
clouds,
%
prec.,
mm/h
press.,
hPa
HPBL,
m
8 march, mon
mon800:00−9nw4119062 0.0 999427
03:00−8nnw4109375 0.0 1002610
06:00−10nnw41093100 0.0 1005493
09:00−11n4990100 0.1 1008607
12:00−8n4783100 0.1 1011644
15:00−6nnw3678100 0.1 1013733
18:00−7nnw378367 0.0 1015545
21:00−12nnw259434 0.0 1017146
9 march, tue
tue900:00−13nnw23940 0.0 101880
03:00−14nw22960 0.0 101923
06:00−16nnw12961 0.0 102020
09:00−14e019221 0.0 102149
12:00−9ese117495 0.0 1021364
15:00−7ese226898 0.0 1021585
18:00−9ese3690100 0.2 1021447
21:00−10ese5993100 1.4 1022468
10 march, wed
wed1000:00−11e5993100 1.6 1023446
03:00−14e5987100 1.9 1024427
06:00−16e41186100 0.0 1025382
09:00−16ese5118361 0.0 1027386
12:00−12ese51166100 0.0 1028594
15:00−9ese5961100 0.0 1028741
18:00−10ese496996 0.0 1027642
21:00−12ese5127597 0.0 1028544
11 march, thu
thu1100:00−11se5117799 0.0 1028528
03:00−12se5119199 0.3 1027473
06:00−12se41093100 0.9 1025434
09:00−11sse4991100 1.3 1025376
12:00−7sse478798 0.1 1024427
15:00−3s488599 0.1 1022644
18:00−3s51084100 0.1 1020827
21:00−5sse5148765 0.1 1019554
12 march, fri
fri1200:00−6sse6158939 0.0 1017666
03:00−6sse6148967 0.0 1014776
06:00−6sse61588100 0.1 1011803
09:00−6sse71586100 0.2 1009870
12:00−4sse71590100 0.3 1007837
15:00−2sse71388100 1.0 10051052
18:00−2sse61390100 0.5 1004976
21:00−2s51295100 1.1 1003659